TimeCST,TemperatureF,Dew PointF,Humidity,Sea Level PressureIn,VisibilityMPH,Wind Direction,Wind SpeedMPH,Gust SpeedMPH,PrecipitationIn,Events,Conditions,WindDirDegrees,DateUTC
12:15 AM,5.0,-0.4,78,29.99,10.0,ESE,12.7,-,N/A,,Unknown,120,2013-12-15 06:15:00
12:35 AM,5.0,-0.4,78,29.99,10.0,SE,13.8,-,N/A,,Unknown,130,2013-12-15 06:35:00
12:55 AM,5.0,-0.4,78,29.99,10.0,ESE,15.0,-,N/A,,Unknown,120,2013-12-15 06:55:00
1:15 AM,3.2,-0.4,85,29.98,10.0,ESE,16.1,-,N/A,,Unknown,120,2013-12-15 07:15:00
1:35 AM,3.2,-0.4,85,29.98,10.0,ESE,15.0,-,N/A,,Unknown,120,2013-12-15 07:35:00
1:55 AM,3.2,-0.4,85,29.96,10.0,ESE,15.0,-,N/A,,Unknown,120,2013-12-15 07:55:00
2:15 AM,3.2,-0.4,85,29.95,-9999.0,ESE,15.0,-,N/A,,Unknown,120,2013-12-15 08:15:00
2:35 AM,3.2,-0.4,85,29.95,10.0,ESE,13.8,-,N/A,,Unknown,120,2013-12-15 08:35:00
2:55 AM,3.2,-0.4,85,29.95,10.0,ESE,15.0,-,N/A,,Unknown,120,2013-12-15 08:55:00
3:15 AM,3.2,-0.4,85,29.95,10.0,SE,15.0,-,N/A,,Unknown,130,2013-12-15 09:15:00
3:35 AM,3.2,-0.4,85,29.94,10.0,ESE,12.7,-,N/A,,Unknown,110,2013-12-15 09:35:00
3:55 AM,3.2,-0.4,85,29.93,10.0,ESE,12.7,-,N/A,,Unknown,120,2013-12-15 09:55:00
4:15 AM,3.2,-0.4,85,29.92,8.0,SE,10.4,-,N/A,Snow,Light Snow,140,2013-12-15 10:15:00
4:35 AM,3.2,-0.4,85,29.92,4.0,SE,10.4,-,N/A,Snow,Light Snow,130,2013-12-15 10:35:00
4:55 AM,3.2,-0.4,85,29.91,3.0,SE,12.7,-,0.01,Snow,Light Snow,130,2013-12-15 10:55:00
5:15 AM,5.0,-0.4,78,29.90,-9999.0,SE,12.7,-,N/A,,Unknown,140,2013-12-15 11:15:00
5:35 AM,5.0,-0.4,78,29.88,10.0,SE,12.7,-,N/A,,Unknown,130,2013-12-15 11:35:00
5:55 AM,5.0,-0.4,78,29.88,10.0,SE,11.5,-,N/A,,Unknown,130,2013-12-15 11:55:00
6:15 AM,5.0,-0.4,78,29.88,10.0,SE,11.5,-,N/A,,Unknown,140,2013-12-15 12:15:00
6:35 AM,5.0,-0.4,78,29.87,10.0,SE,11.5,-,N/A,Snow,Light Snow,130,2013-12-15 12:35:00
6:55 AM,5.0,1.4,85,29.86,9.0,SE,13.8,-,N/A,Snow,Light Snow,140,2013-12-15 12:55:00
7:15 AM,5.0,1.4,85,29.87,-9999.0,SE,9.2,-,N/A,Snow,Heavy Snow,130,2013-12-15 13:15:00
7:35 AM,5.0,1.4,85,29.86,3.0,ESE,10.4,-,0.01,Snow,Light Snow,120,2013-12-15 13:35:00
7:55 AM,5.0,1.4,85,29.86,-9999.0,SE,12.7,-,0.01,Snow,Heavy Snow,130,2013-12-15 13:55:00
8:15 AM,6.8,1.4,79,29.85,-9999.0,SE,11.5,-,N/A,Snow,Heavy Snow,140,2013-12-15 14:15:00
8:35 AM,6.8,1.4,79,29.84,7.0,SE,11.5,-,N/A,Snow,Light Snow,140,2013-12-15 14:35:00
8:55 AM,6.8,1.4,79,29.85,-9999.0,SSE,10.4,-,N/A,,Unknown,150,2013-12-15 14:55:00
9:15 AM,6.8,1.4,79,29.85,-9999.0,SE,11.5,-,N/A,,Unknown,140,2013-12-15 15:15:00
9:35 AM,6.8,1.4,79,29.85,-9999.0,SSE,11.5,-,N/A,,Unknown,160,2013-12-15 15:35:00
9:55 AM,6.8,3.2,85,29.83,-9999.0,SSE,16.1,-,N/A,,Unknown,150,2013-12-15 15:55:00
10:15 AM,6.8,1.4,79,29.85,-9999.0,SSE,12.7,-,N/A,,Unknown,160,2013-12-15 16:15:00
10:35 AM,6.8,3.2,85,29.83,-9999.0,SSE,13.8,-,N/A,,Unknown,160,2013-12-15 16:35:00
10:55 AM,8.6,3.2,79,29.83,-9999.0,SSE,15.0,-,N/A,,Unknown,160,2013-12-15 16:55:00
11:15 AM,8.6,5.0,85,29.81,-9999.0,SSE,12.7,-,N/A,,Unknown,160,2013-12-15 17:15:00
11:35 AM,8.6,5.0,85,29.81,-9999.0,SSE,12.7,-,N/A,,Unknown,160,2013-12-15 17:35:00
11:55 AM,8.6,5.0,85,29.81,-9999.0,South,9.2,-,N/A,,Unknown,170,2013-12-15 17:55:00
12:15 PM,10.4,6.8,85,29.79,-9999.0,SSE,11.5,-,N/A,,Unknown,160,2013-12-15 18:15:00
12:35 PM,10.4,6.8,85,29.78,-9999.0,South,11.5,-,N/A,,Unknown,180,2013-12-15 18:35:00
12:55 PM,12.2,6.8,79,29.78,10.0,South,16.1,-,N/A,,Unknown,190,2013-12-15 18:55:00
1:15 PM,12.2,6.8,79,29.78,10.0,South,11.5,-,N/A,,Unknown,180,2013-12-15 19:15:00
1:35 PM,12.2,8.6,85,29.77,10.0,South,13.8,-,N/A,,Unknown,190,2013-12-15 19:35:00
1:55 PM,14.0,8.6,79,29.76,10.0,South,15.0,-,N/A,,Unknown,190,2013-12-15 19:55:00
2:15 PM,14.0,10.4,86,29.75,10.0,South,11.5,-,N/A,,Unknown,190,2013-12-15 20:15:00
2:35 PM,14.0,10.4,86,29.74,10.0,South,15.0,-,N/A,,Unknown,190,2013-12-15 20:35:00
2:55 PM,14.0,10.4,86,29.73,10.0,South,15.0,20.7,N/A,,Unknown,180,2013-12-15 20:55:00
3:15 PM,14.0,10.4,86,29.74,10.0,South,11.5,-,N/A,,Unknown,190,2013-12-15 21:15:00
3:35 PM,15.8,12.2,86,29.73,10.0,South,10.4,-,N/A,,Unknown,190,2013-12-15 21:35:00
3:55 PM,15.8,12.2,86,29.74,10.0,SSW,9.2,-,N/A,,Unknown,200,2013-12-15 21:55:00
4:15 PM,17.6,14.0,86,29.72,10.0,SSW,11.5,-,N/A,,Unknown,200,2013-12-15 22:15:00
4:35 PM,17.6,14.0,86,29.71,10.0,South,11.5,-,N/A,,Unknown,190,2013-12-15 22:35:00
4:55 PM,17.6,15.8,93,29.72,10.0,SW,10.4,-,N/A,,Unknown,220,2013-12-15 22:55:00
5:15 PM,19.4,15.8,86,29.72,10.0,SSW,11.5,-,N/A,,Unknown,210,2013-12-15 23:15:00
5:35 PM,19.4,17.6,93,29.70,10.0,South,10.4,-,N/A,,Unknown,180,2013-12-15 23:35:00
5:55 PM,19.4,17.6,93,29.73,10.0,West,3.5,-,N/A,,Unknown,260,2013-12-15 23:55:00
6:15 PM,19.4,17.6,93,29.73,10.0,SSW,4.6,-,N/A,,Unknown,210,2013-12-16 00:15:00
6:35 PM,17.6,15.8,93,29.73,10.0,SSW,6.9,-,N/A,,Unknown,210,2013-12-16 00:35:00
6:55 PM,17.6,15.8,93,29.72,10.0,SSW,6.9,-,N/A,,Unknown,210,2013-12-16 00:55:00
7:15 PM,17.6,15.8,93,29.72,10.0,SW,11.5,-,N/A,,Unknown,220,2013-12-16 01:15:00
7:35 PM,17.6,15.8,93,29.71,10.0,SSW,12.7,-,N/A,,Unknown,200,2013-12-16 01:35:00
7:55 PM,17.6,15.8,93,29.71,10.0,SSW,12.7,-,N/A,,Unknown,200,2013-12-16 01:55:00
8:15 PM,19.4,17.6,93,29.70,10.0,SSW,10.4,-,N/A,,Unknown,210,2013-12-16 02:15:00
8:35 PM,19.4,17.6,93,29.71,10.0,SSW,10.4,-,N/A,,Unknown,210,2013-12-16 02:35:00
8:55 PM,19.4,17.6,93,29.70,10.0,SSW,10.4,-,N/A,,Unknown,200,2013-12-16 02:55:00
9:15 PM,19.4,19.4,100,29.70,10.0,SSW,9.2,-,N/A,,Unknown,200,2013-12-16 03:15:00
9:35 PM,19.4,19.4,100,29.71,10.0,SSW,8.1,-,N/A,,Unknown,200,2013-12-16 03:35:00
9:55 PM,21.2,19.4,93,29.73,10.0,WNW,4.6,-,N/A,,Unknown,290,2013-12-16 03:55:00
10:15 PM,30.2,26.6,86,29.73,10.0,WNW,10.4,-,N/A,Rain,Freezing Rain,300,2013-12-16 04:15:00
10:35 PM,28.4,26.6,93,29.74,10.0,WNW,11.5,-,N/A,,Unknown,300,2013-12-16 04:35:00
10:55 PM,28.4,28.4,100,29.75,10.0,NW,13.8,-,N/A,,Unknown,320,2013-12-16 04:55:00
11:15 PM,32.0,28.4,87,29.76,10.0,NNW,18.4,25.3,N/A,,Unknown,330,2013-12-16 05:15:00
11:35 PM,32.0,28.4,87,29.76,10.0,NW,13.8,-,N/A,,Unknown,320,2013-12-16 05:35:00
11:55 PM,32.0,28.4,87,29.76,10.0,NW,11.5,-,N/A,,Unknown,320,2013-12-16 05:55:00